COSMOS 2213

Satellite information

Favourite Embed

Satellite Type and Status

PAYLOADIN ORBIT

Key statistics

Satellite COSMOS 2213 at a glance.

Uptime

12061

Days in orbit

Revolutions

≈ 12.6

Per day

Orbit

LEO

Low Earth Orbit

Inclination

82.6

Latest

Satellite identification and parameters

Extended collection of information and parameters for COSMOS 2213.

Object identification

Identified? True

Debris? False

Object name: COSMOS 2213

International designator: 1992-068C

Object number (NORAD): 22184

Object ID (CCSDS): 22184

Country: COMMONWEALTH OF INDEPENDENT STATES (CIS)

Current information (Y/N): Y

RCS size: LARGE

Orbital parameters

Period: 114.05 minutes

Inclination: 82.5969 deg

SMA: 7790.35 km

Apoapsis: 1414.09 km

Periapsis: 1410.341 km

RAAN: 135.607 deg

Eccentricy: 0.00024058

Argument of periapsis: 311.6999 deg

Mean anomaly: 58.7162 deg

Mean motion: 12.62604328 rev/day

Mean motion (dot): 0.00000033 rev/day2

B* drag term: 0.00012415807 1/REarth

Two-line elements (TLE)

Creation date: Oct. 27, 2025, 2:46 a.m.

Reference frame: TEME

Reference center: EARTH

Epoch: Oct. 26, 2025, 7:19 p.m. UTC

TLE line 0: 0 COSMOS 2213

TLE line 1: 1 22184U 92068C 25299.80553701 .00000033 00000-0 12416-3 0 9991

TLE line 2: 2 22184 82.5969 135.6070 0002406 311.6999 58.7162 12.62604328521506

Live tracking on map

Real-time ground track for satellite COSMOS 2213.

In-orbit conjunctions

A list of the most updated potential collisions computed for object COSMOS 2213.

Target Orbit TCA Probability of collision Miss distance Type
DELTA 1 DEB HEO 2024-10-19 20:35:06 0.0001031178 979.0 (m) DEBRIS

Associated space launch

Second generation store-dump military communications satellite

COSMOS 2213 was lifted into orbit during the mission ‘Tsiklon-3 | Strela-3 83 to 88’, on board a Tsiklon-3 space rocket.

The launch took place on Oct. 20, 1992, 12:58 p.m. from 32/1.

For more information about the launch, click the button.

Launch to space Tsiklon-3 | Strela-3 83 to 88
Tsiklon-3 | Strela-3 83 to 88

Agency: N/A

Status: Launch Successful

Launch date: Oct. 20, 1992, 12:58 p.m. UTC

Rocket: Tsiklon-3

Launch pad: 32/1

Location: Plesetsk Cosmodrome, Russian Federation

...

Latest news about this satellite

There are no fresh news available about this satellite. Check back as we update our databases every day.


Newsletter sign-up

Weekly statistics, charts and insights to help you stay on top of the space industry.